,,,PA_Meas_PMT16A,,PR_Meas_QMR101_102,,RH_Meas_QMH101,,SR_Meas_QMS101,,TA_Meas_QMH101,,GenWind,,GenWind,
date,time,status,PA,status,PR,status,RH,status,SR,status,TA,status,DirAvg,status,SpdAvg,
2012-11-02, 00:00:04,VALID,1009.28,VALID,0,VALID,104,VALID,0.112112,VALID,23.4017,VALID,31,VALID,0.346094,
2012-11-02, 00:01:04,VALID,1009.28,VALID,0,VALID,104,VALID,0.112112,VALID,23.4212,VALID,31,VALID,0.454297,
2012-11-02, 00:02:04,VALID,1009.26,VALID,0,VALID,104,VALID,0,VALID,23.4017,VALID,32,VALID,0.323828,
2012-11-02, 00:03:04,VALID,1009.25,VALID,0,VALID,104,VALID,0,VALID,23.4017,VALID,31,VALID,0.339453,
2012-11-02, 00:04:04,VALID,1009.22,VALID,0,VALID,104,VALID,0,VALID,23.4017,VALID,31,VALID,0,
2012-11-02, 00:05:04,VALID,1009.21,VALID,0,VALID,104,VALID,0,VALID,23.4212,VALID,37,VALID,0.532812,
2012-11-02, 00:06:04,VALID,1009.2,VALID,0,VALID,104,VALID,0,VALID,23.4017,VALID,89,VALID,0.820703,
2012-11-02, 00:07:04,VALID,1009.17,VALID,0,VALID,104,VALID,0,VALID,23.361,VALID,94,VALID,0.162109,
2012-11-02, 00:08:04,VALID,1009.14,VALID,0,VALID,104,VALID,0,VALID,23.3805,VALID,94,VALID,0,
2012-11-02, 00:09:04,VALID,1009.11,VALID,0,VALID,104,VALID,0,VALID,23.361,VALID,94,VALID,0,
2012-11-02, 00:10:04,VALID,1009.11,VALID,0,VALID,104,VALID,0,VALID,23.3823,VALID,93,VALID,0,
2012-11-02, 00:11:04,VALID,1009.1,VALID,0,VALID,104,VALID,0,VALID,23.3805,VALID,91,VALID,0,
2012-11-02, 00:12:04,VALID,1009.08,VALID,0,VALID,104,VALID,0,VALID,23.4017,VALID,88,VALID,0,
2012-11-02, 00:13:04,VALID,1009.08,VALID,0,VALID,104,VALID,0.112112,VALID,23.4,VALID,81,VALID,0,
2012-11-02, 00:14:04,VALID,1009.05,VALID,0,VALID,104,VALID,0,VALID,23.4212,VALID,81,VALID,0,
2012-11-02, 00:15:04,VALID,1009.07,VALID,0,VALID,104,VALID,0.112112,VALID,23.4212,VALID,64,VALID,0,
2012-11-02, 00:16:04,VALID,1009.02,VALID,0,VALID,104,VALID,0,VALID,23.4212,VALID,60,VALID,0,
2012-11-02, 00:17:04,VALID,1009.01,VALID,0,VALID,104,VALID,0,VALID,23.4212,VALID,46,VALID,0.635547,
2012-11-02, 00:18:04,VALID,1008.99,VALID,0,VALID,104,VALID,0,VALID,23.4194,VALID,47,VALID,0.352734,
2012-11-02, 00:19:04,VALID,1008.99,VALID,0,VALID,104,VALID,0,VALID,23.4407,VALID,47,VALID,0.356641,
2012-11-02, 00:20:04,VALID,1008.95,VALID,0,VALID,104,VALID,0,VALID,23.4194,VALID,47,VALID,0.452344,
2012-11-02, 00:21:04,VALID,1008.93,VALID,0,VALID,104,VALID,0,VALID,23.4212,VALID,48,VALID,0.21875,
2012-11-02, 00:22:04,VALID,1008.9,VALID,0,VALID,104,VALID,0,VALID,23.4407,VALID,76,VALID,0.939844,
2012-11-02, 00:23:04,VALID,1008.88,VALID,0,VALID,104,VALID,0,VALID,23.4212,VALID,75,VALID,0.617188,
2012-11-02, 00:24:04,VALID,1008.86,VALID,0,VALID,104,VALID,0,VALID,23.4407,VALID,75,VALID,0.44375,
2012-11-02, 00:25:04,VALID,1008.85,VALID,0,VALID,104,VALID,0,VALID,23.4407,VALID,75,VALID,0.40625,
2012-11-02, 00:26:04,VALID,1008.82,VALID,0,VALID,104,VALID,0,VALID,23.4407,VALID,75,VALID,0.476172,
2012-11-02, 00:27:04,VALID,1008.84,VALID,0,VALID,104,VALID,0.112112,VALID,23.4194,VALID,75,VALID,0.603906,
2012-11-02, 00:28:04,VALID,1008.85,VALID,0,VALID,104,VALID,0,VALID,23.4212,VALID,75,VALID,0.601563,
2012-11-02, 00:29:04,VALID,1008.85,VALID,0,VALID,104,VALID,0,VALID,23.4407,VALID,86,VALID,0.891406,
2012-11-02, 00:30:04,VALID,1008.87,VALID,0,VALID,104,VALID,0,VALID,23.4425,VALID,95,VALID,0.687109,
2012-11-02, 00:31:04,VALID,1008.86,VALID,0,VALID,104,VALID,0,VALID,23.4407,VALID,92,VALID,0.835547,
2012-11-02, 00:32:04,VALID,1008.86,VALID,0,VALID,104,VALID,0,VALID,23.4212,VALID,80,VALID,0.61875,
2012-11-02, 00:33:04,VALID,1008.86,VALID,0,VALID,104,VALID,0,VALID,23.4,VALID,80,VALID,0.385156,
2012-11-02, 00:34:04,VALID,1008.86,VALID,0,VALID,104,VALID,0,VALID,23.4389,VALID,82,VALID,0.492188,
2012-11-02, 00:35:04,VALID,1008.83,VALID,0,VALID,104,VALID,0.112112,VALID,23.4602,VALID,108,VALID,0.675391,
2012-11-02, 00:36:04,VALID,1008.82,VALID,0,VALID,104,VALID,0.112112,VALID,23.4407,VALID,108,VALID,0.643359,
2012-11-02, 00:37:04,VALID,1008.84,VALID,0,VALID,104,VALID,0,VALID,23.4407,VALID,108,VALID,0.525,
2012-11-02, 00:38:04,VALID,1008.82,VALID,0,VALID,104,VALID,0,VALID,23.4407,VALID,108,VALID,0.661719,
2012-11-02, 00:39:04,VALID,1008.84,VALID,0,VALID,104,VALID,0,VALID,23.4194,VALID,109,VALID,0.594531,
2012-11-02, 00:40:04,VALID,1008.83,VALID,0,VALID,104,VALID,0,VALID,23.4194,VALID,112,VALID,0.544922,
2012-11-02, 00:41:04,VALID,1008.79,VALID,0,VALID,104,VALID,0,VALID,23.4407,VALID,115,VALID,0.437891,
2012-11-02, 00:42:04,VALID,1008.8,VALID,0,VALID,104,VALID,0,VALID,23.4212,VALID,108,VALID,0.846875,
2012-11-02, 00:43:04,VALID,1008.79,VALID,0,VALID,104,VALID,0,VALID,23.4,VALID,107,VALID,0.517187,
2012-11-02, 00:44:04,VALID,1008.78,VALID,0,VALID,104,VALID,0,VALID,23.4407,VALID,106,VALID,0.346875,
2012-11-02, 00:45:04,VALID,1008.79,VALID,0,VALID,104,VALID,0,VALID,23.4407,VALID,106,VALID,0.0910156,
2012-11-02, 00:46:04,VALID,1008.8,VALID,0,VALID,104,VALID,0.112112,VALID,23.4,VALID,144,VALID,0.58125,
2012-11-02, 00:47:04,VALID,1008.81,VALID,0,VALID,104,VALID,0,VALID,23.4212,VALID,143,VALID,0.394141,
2012-11-02, 00:48:04,VALID,1008.8,VALID,0,VALID,104,VALID,0,VALID,23.4212,VALID,129,VALID,0.635938,
2012-11-02, 00:49:04,VALID,1008.78,VALID,0,VALID,104,VALID,0,VALID,23.4017,VALID,130,VALID,0.991406,
2012-11-02, 00:50:04,VALID,1008.81,VALID,0,VALID,104,VALID,0.112112,VALID,23.361,VALID,129,VALID,0.686328,
2012-11-02, 00:51:04,VALID,1008.82,VALID,0,VALID,104,VALID,0,VALID,23.3823,VALID,129,VALID,0.565625,
2012-11-02, 00:52:04,VALID,1008.84,VALID,0,VALID,104,VALID,0,VALID,23.3823,VALID,129,VALID,0.243359,
2012-11-02, 00:53:04,VALID,1008.89,VALID,0,VALID,104,VALID,0,VALID,23.3823,VALID,104,VALID,0.646875,
2012-11-02, 00:54:04,VALID,1008.85,VALID,0,VALID,104,VALID,0.112112,VALID,23.3805,VALID,96,VALID,1.01563,
2012-11-02, 00:55:04,VALID,1008.86,VALID,0,VALID,104,VALID,0.112112,VALID,23.3805,VALID,97,VALID,0.751172,
2012-11-02, 00:56:04,VALID,1008.87,VALID,0,VALID,104,VALID,0,VALID,23.3805,VALID,96,VALID,0.308984,
2012-11-02, 00:57:04,VALID,1008.87,VALID,0,VALID,104,VALID,0,VALID,23.4212,VALID,97,VALID,0.187109,
2012-11-02, 00:58:04,VALID,1008.82,VALID,0,VALID,104,VALID,0.112112,VALID,23.4,VALID,90,VALID,0.607813,
2012-11-02, 00:59:04,VALID,1008.84,VALID,0,VALID,104,VALID,0,VALID,23.4212,VALID,46,VALID,0.673047,
2012-11-02, 01:00:04,VALID,1008.83,VALID,0,VALID,104,VALID,0.112112,VALID,23.3823,VALID,60,VALID,0.427734,
2012-11-02, 01:01:04,VALID,1008.86,VALID,0,VALID,104,VALID,0.112112,VALID,23.4212,VALID,56,VALID,0.975781,
2012-11-02, 01:02:04,VALID,1008.87,VALID,0,VALID,104,VALID,0,VALID,23.4407,VALID,56,VALID,0.258203,
2012-11-02, 01:03:04,VALID,1008.85,VALID,0,VALID,104,VALID,0,VALID,23.4212,VALID,57,VALID,0.675391,
2012-11-02, 01:04:04,VALID,1008.85,VALID,0,VALID,104,VALID,0,VALID,23.4407,VALID,57,VALID,0.444922,
2012-11-02, 01:05:04,VALID,1008.83,VALID,0,VALID,104,VALID,0,VALID,23.4407,VALID,57,VALID,0.492969,
2012-11-02, 01:06:04,VALID,1008.82,VALID,0,VALID,104,VALID,0,VALID,23.4407,VALID,57,VALID,0.152734,
2012-11-02, 01:07:04,VALID,1008.78,VALID,0,VALID,104,VALID,0,VALID,23.4212,VALID,57,VALID,0.539063,
2012-11-02, 01:08:04,VALID,1008.8,VALID,0,VALID,104,VALID,0,VALID,23.4212,VALID,56,VALID,0.494141,
2012-11-02, 01:09:04,VALID,1008.76,VALID,0,VALID,104,VALID,0,VALID,23.4212,VALID,70,VALID,0.664063,
2012-11-02, 01:10:04,VALID,1008.75,VALID,0,VALID,104,VALID,0.112112,VALID,23.4,VALID,55,VALID,0.306641,
2012-11-02, 01:11:04,VALID,1008.75,VALID,0,VALID,104,VALID,0,VALID,23.4017,VALID,55,VALID,0.003125,
2012-11-02, 01:12:04,VALID,1008.76,VALID,0,VALID,104,VALID,0.112112,VALID,23.4212,VALID,55,VALID,0.0703125,
2012-11-02, 01:13:04,VALID,1008.74,VALID,0,VALID,104,VALID,0,VALID,23.4212,VALID,55,VALID,0.184375,
2012-11-02, 01:14:04,VALID,1008.73,VALID,0,VALID,104,VALID,0,VALID,23.361,VALID,83,VALID,0.816016,
2012-11-02, 01:15:04,VALID,1008.7,VALID,0,VALID,104,VALID,0,VALID,23.3805,VALID,83,VALID,0.464844,
2012-11-02, 01:16:04,VALID,1008.67,VALID,0,VALID,104,VALID,0,VALID,23.4017,VALID,83,VALID,0.69375,
2012-11-02, 01:17:04,VALID,1008.65,VALID,0,VALID,104,VALID,0,VALID,23.3823,VALID,81,VALID,0.765625,
2012-11-02, 01:18:04,VALID,1008.66,VALID,0,VALID,104,VALID,0.112112,VALID,23.4017,VALID,81,VALID,0.707031,
2012-11-02, 01:19:04,VALID,1008.62,VALID,0,VALID,104,VALID,0,VALID,23.361,VALID,73,VALID,0.362109,
2012-11-02, 01:20:04,VALID,1008.64,VALID,0,VALID,104,VALID,0,VALID,23.4017,VALID,73,VALID,0.630469,
2012-11-02, 01:21:04,VALID,1008.63,VALID,0,VALID,104,VALID,0,VALID,23.4017,VALID,73,VALID,0.495313,
2012-11-02, 01:22:04,VALID,1008.63,VALID,0,VALID,104,VALID,0,VALID,23.4017,VALID,72,VALID,0.610156,
2012-11-02, 01:23:04,VALID,1008.66,VALID,0,VALID,104,VALID,0,VALID,23.3823,VALID,72,VALID,0.490625,
2012-11-02, 01:24:04,VALID,1008.63,VALID,0,VALID,104,VALID,0.112112,VALID,23.361,VALID,72,VALID,0.367188,
2012-11-02, 01:25:04,VALID,1008.65,VALID,0,VALID,104,VALID,0,VALID,23.3805,VALID,72,VALID,0.437109,
2012-11-02, 01:26:04,VALID,1008.66,VALID,0,VALID,104,VALID,0,VALID,23.3823,VALID,72,VALID,0.232812,
2012-11-02, 01:27:04,VALID,1008.65,VALID,0,VALID,104,VALID,0,VALID,23.4017,VALID,72,VALID,0.170312,
2012-11-02, 01:28:04,VALID,1008.66,VALID,0,VALID,104,VALID,0.112112,VALID,23.4017,VALID,72,VALID,0.483203,
2012-11-02, 01:29:04,VALID,1008.67,VALID,0,VALID,104,VALID,0,VALID,23.3805,VALID,72,VALID,0.130469,
2012-11-02, 01:30:04,VALID,1008.65,VALID,0,VALID,104,VALID,0.112112,VALID,23.4017,VALID,72,VALID,0.0546875,
2012-11-02, 01:31:04,VALID,1008.68,VALID,0,VALID,104,VALID,0,VALID,23.4017,VALID,79,VALID,0.785156,
2012-11-02, 01:32:04,VALID,1008.65,VALID,0,VALID,104,VALID,0,VALID,23.3823,VALID,79,VALID,0.167187,
2012-11-02, 01:33:04,VALID,1008.65,VALID,0,VALID,104,VALID,0,VALID,23.4017,VALID,79,VALID,0.317969,
2012-11-02, 01:34:04,VALID,1008.64,VALID,0,VALID,104,VALID,0.112112,VALID,23.3805,VALID,79,VALID,0,
2012-11-02, 01:35:04,VALID,1008.64,VALID,0,VALID,104,VALID,0,VALID,23.4017,VALID,79,VALID,0,
2012-11-02, 01:36:04,VALID,1008.58,VALID,0,VALID,104,VALID,0,VALID,23.3805,VALID,79,VALID,0.00390625,
2012-11-02, 01:37:04,VALID,1008.55,VALID,0,VALID,104,VALID,0.112112,VALID,23.4017,VALID,79,VALID,0,
2012-11-02, 01:38:04,VALID,1008.5,VALID,0,VALID,104,VALID,0,VALID,23.3823,VALID,79,VALID,0,
2012-11-02, 01:39:04,VALID,1008.45,VALID,0,VALID,104,VALID,0.112112,VALID,23.361,VALID,79,VALID,0,
2012-11-02, 01:40:04,VALID,1008.42,VALID,0,VALID,104,VALID,0.112112,VALID,23.3628,VALID,79,VALID,0.107813,
2012-11-02, 01:41:04,VALID,1008.37,VALID,0,VALID,104,VALID,0.112112,VALID,23.3415,VALID,79,VALID,0.235156,
2012-11-02, 01:42:04,VALID,1008.36,VALID,0,VALID,104,VALID,0,VALID,23.361,VALID,79,VALID,0.220313,
2012-11-02, 01:43:04,VALID,1008.33,VALID,0,VALID,104,VALID,0,VALID,23.3628,VALID,79,VALID,0.101172,
2012-11-02, 01:44:04,VALID,1008.3,VALID,0,VALID,104,VALID,0.112112,VALID,23.3628,VALID,79,VALID,0.138281,
2012-11-02, 01:45:04,VALID,1008.31,VALID,0,VALID,104,VALID,0.112112,VALID,23.3433,VALID,79,VALID,0.0566406,
2012-11-02, 01:46:04,VALID,1008.31,VALID,0,VALID,104,VALID,0.112112,VALID,23.3433,VALID,79,VALID,0.08125,
2012-11-02, 01:47:04,VALID,1008.31,VALID,0,VALID,104,VALID,0.112112,VALID,23.3433,VALID,79,VALID,0,
2012-11-02, 01:48:04,VALID,1008.32,VALID,0,VALID,104,VALID,0,VALID,23.3238,VALID,79,VALID,0.371094,
2012-11-02, 01:49:04,VALID,1008.32,VALID,0,VALID,104,VALID,0,VALID,23.322,VALID,79,VALID,0.673828,
2012-11-02, 01:50:04,VALID,1008.3,VALID,0,VALID,104,VALID,0.112112,VALID,23.3026,VALID,77,VALID,0.639063,
2012-11-02, 01:51:04,VALID,1008.28,VALID,0,VALID,104,VALID,0.112112,VALID,23.3433,VALID,63,VALID,0.270312,
2012-11-02, 01:52:04,VALID,1008.27,VALID,0,VALID,104,VALID,0.112112,VALID,23.3415,VALID,63,VALID,0.237109,
2012-11-02, 01:53:04,VALID,1008.27,VALID,0,VALID,104,VALID,0.112112,VALID,23.3628,VALID,58,VALID,0.181641,
2012-11-02, 01:54:04,VALID,1008.23,VALID,0,VALID,104,VALID,0.112112,VALID,23.3415,VALID,55,VALID,0.391406,
2012-11-02, 01:55:04,VALID,1008.21,VALID,0,VALID,104,VALID,0,VALID,23.3433,VALID,45,VALID,0.351563,
2012-11-02, 01:56:04,VALID,1008.21,VALID,0,VALID,104,VALID,0,VALID,23.3238,VALID,45,VALID,0.408984,
2012-11-02, 01:57:05,VALID,1008.15,VALID,0,VALID,104,VALID,0.112112,VALID,23.3238,VALID,45,VALID,0.582422,
2012-11-02, 01:58:05,VALID,1008.16,VALID,0,VALID,104,VALID,0,VALID,23.3238,VALID,45,VALID,0.371875,
2012-11-02, 01:59:05,VALID,1008.14,VALID,0,VALID,104,VALID,0,VALID,23.3026,VALID,45,VALID,0.299609,
2012-11-02, 02:00:05,VALID,1008.1,VALID,0,VALID,104,VALID,0,VALID,23.3433,VALID,45,VALID,0.501953,
2012-11-02, 02:01:05,VALID,1008.12,VALID,0,VALID,104,VALID,0,VALID,23.3433,VALID,45,VALID,0.0304688,
2012-11-02, 02:02:05,VALID,1008.14,VALID,0,VALID,104,VALID,0,VALID,23.3433,VALID,45,VALID,0.386719,
2012-11-02, 02:03:05,VALID,1008.15,VALID,0,VALID,104,VALID,0,VALID,23.3026,VALID,45,VALID,0.605469,
2012-11-02, 02:04:05,VALID,1008.19,VALID,0,VALID,104,VALID,0.112112,VALID,23.3433,VALID,52,VALID,0.742188,
2012-11-02, 02:05:05,VALID,1008.22,VALID,0,VALID,104,VALID,0,VALID,23.3433,VALID,52,VALID,0.542188,
2012-11-02, 02:06:05,VALID,1008.25,VALID,0,VALID,104,VALID,0,VALID,23.3238,VALID,52,VALID,0.575,
2012-11-02, 02:07:05,VALID,1008.22,VALID,0,VALID,104,VALID,0,VALID,23.3433,VALID,52,VALID,0.199219,
2012-11-02, 02:08:05,VALID,1008.24,VALID,0,VALID,104,VALID,0,VALID,23.322,VALID,52,VALID,0.355859,
2012-11-02, 02:09:05,VALID,1008.22,VALID,0,VALID,104,VALID,0,VALID,23.322,VALID,51,VALID,0.681641,
2012-11-02, 02:10:05,VALID,1008.22,VALID,0,VALID,104,VALID,0.112112,VALID,23.322,VALID,50,VALID,0.585938,
2012-11-02, 02:11:05,VALID,1008.2,VALID,0,VALID,104,VALID,0.112112,VALID,23.3026,VALID,55,VALID,0.446875,
2012-11-02, 02:12:05,VALID,1008.18,VALID,0,VALID,104,VALID,0,VALID,23.3043,VALID,55,VALID,0.519922,
2012-11-02, 02:13:05,VALID,1008.16,VALID,0,VALID,104,VALID,0.112112,VALID,23.3043,VALID,55,VALID,0.347266,
2012-11-02, 02:14:05,VALID,1008.13,VALID,0,VALID,104,VALID,0.112112,VALID,23.3043,VALID,55,VALID,0.367188,
2012-11-02, 02:15:05,VALID,1008.13,VALID,0,VALID,104,VALID,0,VALID,23.2831,VALID,55,VALID,0.238281,
2012-11-02, 02:16:05,VALID,1008.1,VALID,0,VALID,104,VALID,0,VALID,23.3043,VALID,55,VALID,0.145313,
2012-11-02, 02:17:05,VALID,1008.11,VALID,0,VALID,104,VALID,0,VALID,23.3043,VALID,55,VALID,0,
2012-11-02, 02:18:05,VALID,1008.09,VALID,0,VALID,104,VALID,0,VALID,23.3026,VALID,55,VALID,0.0679687,
2012-11-02, 02:19:05,VALID,1008.13,VALID,0,VALID,104,VALID,0.112112,VALID,23.3238,VALID,55,VALID,0.0828125,
2012-11-02, 02:20:05,VALID,1008.1,VALID,0,VALID,104,VALID,0,VALID,23.3043,VALID,55,VALID,0,
2012-11-02, 02:21:05,VALID,1008.11,VALID,0,VALID,104,VALID,0.112112,VALID,23.2831,VALID,55,VALID,0.339453,
2012-11-02, 02:22:05,VALID,1008.12,VALID,0,VALID,104,VALID,0.112112,VALID,23.3043,VALID,55,VALID,0.427734,
2012-11-02, 02:23:05,VALID,1008.12,VALID,0,VALID,104,VALID,0.112112,VALID,23.3043,VALID,55,VALID,0.202734,
2012-11-02, 02:24:05,VALID,1008.13,VALID,0,VALID,104,VALID,0.112112,VALID,23.2831,VALID,55,VALID,0,
2012-11-02, 02:25:05,VALID,1008.09,VALID,0,VALID,104,VALID,0.112112,VALID,23.3043,VALID,55,VALID,0.495703,
2012-11-02, 02:26:05,VALID,1008.11,VALID,0,VALID,104,VALID,0.112112,VALID,23.2636,VALID,55,VALID,0.127734,
2012-11-02, 02:27:05,VALID,1008.09,VALID,0,VALID,104,VALID,0.112112,VALID,23.3043,VALID,55,VALID,0.250781,
2012-11-02, 02:28:05,VALID,1008.07,VALID,0,VALID,104,VALID,0,VALID,23.2848,VALID,53,VALID,0.480859,
2012-11-02, 02:29:05,VALID,1008.05,VALID,0,VALID,104,VALID,0,VALID,23.2636,VALID,53,VALID,0.224609,
2012-11-02, 02:30:05,VALID,1008.06,VALID,0,VALID,104,VALID,0,VALID,23.3043,VALID,53,VALID,0.1875,
2012-11-02, 02:31:05,VALID,1008.05,VALID,0,VALID,104,VALID,0.112112,VALID,23.2831,VALID,53,VALID,0.121094,
2012-11-02, 02:32:05,VALID,1008.03,VALID,0,VALID,104,VALID,0,VALID,23.2831,VALID,53,VALID,0.351953,
2012-11-02, 02:33:05,VALID,1008.04,VALID,0,VALID,104,VALID,0.112112,VALID,23.2831,VALID,53,VALID,0.65625,
2012-11-02, 02:34:05,VALID,1008.01,VALID,0,VALID,104,VALID,0.112112,VALID,23.2848,VALID,53,VALID,0.516797,
2012-11-02, 02:35:05,VALID,1007.99,VALID,0,VALID,104,VALID,0.112112,VALID,23.3043,VALID,53,VALID,0.412109,
2012-11-02, 02:36:05,VALID,1007.98,VALID,0,VALID,104,VALID,0,VALID,23.2848,VALID,53,VALID,0.243359,
2012-11-02, 02:37:05,VALID,1007.99,VALID,0,VALID,104,VALID,0.112112,VALID,23.2831,VALID,53,VALID,0.251563,
2012-11-02, 02:38:05,VALID,1007.96,VALID,0,VALID,104,VALID,0,VALID,23.2848,VALID,53,VALID,0.692187,
2012-11-02, 02:39:05,VALID,1007.97,VALID,0,VALID,104,VALID,0,VALID,23.3043,VALID,53,VALID,0.282813,
2012-11-02, 02:40:05,VALID,1007.95,VALID,0,VALID,104,VALID,0,VALID,23.2848,VALID,53,VALID,0.0964844,
2012-11-02, 02:41:05,VALID,1007.95,VALID,0,VALID,104,VALID,0,VALID,23.2848,VALID,53,VALID,0.555859,
2012-11-02, 02:42:05,VALID,1007.95,VALID,0,VALID,104,VALID,0.112112,VALID,23.2831,VALID,53,VALID,0.477734,
2012-11-02, 02:43:05,VALID,1007.95,VALID,0,VALID,104,VALID,0,VALID,23.2636,VALID,53,VALID,0.00234375,
2012-11-02, 02:44:05,VALID,1007.95,VALID,0,VALID,104,VALID,0,VALID,23.2636,VALID,53,VALID,0.322266,
2012-11-02, 02:45:05,VALID,1007.95,VALID,0,VALID,104,VALID,0.112112,VALID,23.2441,VALID,62,VALID,0.389453,
2012-11-02, 02:46:05,VALID,1007.95,VALID,0,VALID,104,VALID,0,VALID,23.2848,VALID,62,VALID,0.0578125,
2012-11-02, 02:47:05,VALID,1007.93,VALID,0,VALID,104,VALID,0.112112,VALID,23.2654,VALID,62,VALID,0.29375,
2012-11-02, 02:48:05,VALID,1007.92,VALID,0,VALID,104,VALID,0,VALID,23.2654,VALID,62,VALID,0.232812,
2012-11-02, 02:49:05,VALID,1007.93,VALID,0,VALID,104,VALID,0,VALID,23.2654,VALID,68,VALID,0.557422,
2012-11-02, 02:50:05,VALID,1007.95,VALID,0,VALID,104,VALID,0.112112,VALID,23.2441,VALID,85,VALID,0.543359,
2012-11-02, 02:51:05,VALID,1007.96,VALID,0,VALID,104,VALID,0.112112,VALID,23.2848,VALID,76,VALID,0.323828,
2012-11-02, 02:52:05,VALID,1007.96,VALID,0,VALID,104,VALID,0.112112,VALID,23.2636,VALID,76,VALID,0.171875,
2012-11-02, 02:53:05,VALID,1007.97,VALID,0,VALID,104,VALID,0.112112,VALID,23.2848,VALID,76,VALID,0.307813,
2012-11-02, 02:54:05,VALID,1007.96,VALID,0,VALID,104,VALID,0.112112,VALID,23.2636,VALID,82,VALID,0.303125,
2012-11-02, 02:55:05,VALID,1007.94,VALID,0,VALID,104,VALID,0,VALID,23.2636,VALID,81,VALID,0.00585938,
2012-11-02, 02:56:05,VALID,1007.9,VALID,0,VALID,104,VALID,0,VALID,23.2848,VALID,82,VALID,0.155078,
2012-11-02, 02:57:05,VALID,1007.91,VALID,0,VALID,104,VALID,0,VALID,23.2636,VALID,82,VALID,0.235547,
2012-11-02, 02:58:05,VALID,1007.89,VALID,0,VALID,104,VALID,0.112112,VALID,23.2636,VALID,81,VALID,0,
2012-11-02, 02:59:05,VALID,1007.93,VALID,0,VALID,104,VALID,0.112112,VALID,23.2636,VALID,81,VALID,0.262891,
2012-11-02, 03:00:05,VALID,1007.9,VALID,0,VALID,104,VALID,0.112112,VALID,23.2654,VALID,81,VALID,0.0992187,
2012-11-02, 03:01:05,VALID,1007.9,VALID,0,VALID,104,VALID,0,VALID,23.2636,VALID,82,VALID,0.254687,
2012-11-02, 03:02:05,VALID,1007.92,VALID,0,VALID,104,VALID,0.112112,VALID,23.2848,VALID,81,VALID,0.0457031,
2012-11-02, 03:03:05,VALID,1007.94,VALID,0,VALID,104,VALID,0.112112,VALID,23.2848,VALID,81,VALID,0,
2012-11-02, 03:04:05,VALID,1007.93,VALID,0,VALID,104,VALID,0.112112,VALID,23.2848,VALID,81,VALID,0,
2012-11-02, 03:05:05,VALID,1007.93,VALID,0,VALID,104,VALID,0,VALID,23.2848,VALID,81,VALID,0,
2012-11-02, 03:06:05,VALID,1007.94,VALID,0,VALID,104,VALID,0.112112,VALID,23.2636,VALID,81,VALID,0,
2012-11-02, 03:07:05,VALID,1007.92,VALID,0,VALID,104,VALID,0,VALID,23.2848,VALID,81,VALID,0,
2012-11-02, 03:08:05,VALID,1007.95,VALID,0,VALID,104,VALID,0,VALID,23.2636,VALID,80,VALID,0,
2012-11-02, 03:09:05,VALID,1007.93,VALID,0,VALID,104,VALID,0.112112,VALID,23.3026,VALID,81,VALID,0,
2012-11-02, 03:10:05,VALID,1007.92,VALID,0,VALID,104,VALID,0,VALID,23.2831,VALID,81,VALID,0,
2012-11-02, 03:11:05,VALID,1007.96,VALID,0,VALID,104,VALID,0,VALID,23.2831,VALID,83,VALID,0.530859,
2012-11-02, 03:12:05,VALID,1007.95,VALID,0,VALID,104,VALID,0,VALID,23.2831,VALID,83,VALID,0.485156,
2012-11-02, 03:13:05,VALID,1007.96,VALID,0,VALID,104,VALID,0,VALID,23.3238,VALID,83,VALID,0.481641,
2012-11-02, 03:14:05,VALID,1007.97,VALID,0,VALID,104,VALID,0,VALID,23.3026,VALID,83,VALID,0.533203,
2012-11-02, 03:15:05,VALID,1007.98,VALID,0,VALID,104,VALID,0.112112,VALID,23.3238,VALID,132,VALID,0.473047,
2012-11-02, 03:16:05,VALID,1007.98,VALID,0,VALID,104,VALID,0,VALID,23.322,VALID,137,VALID,0.635156,
2012-11-02, 03:17:05,VALID,1007.96,VALID,0,VALID,104,VALID,0.112112,VALID,23.322,VALID,150,VALID,0.742188,
2012-11-02, 03:18:05,VALID,1007.98,VALID,0,VALID,104,VALID,0.112112,VALID,23.3238,VALID,154,VALID,0.396484,
2012-11-02, 03:19:05,VALID,1007.97,VALID,0,VALID,104,VALID,0,VALID,23.2636,VALID,154,VALID,0.577734,
2012-11-02, 03:20:05,VALID,1008,VALID,0,VALID,104,VALID,0.112112,VALID,23.3026,VALID,154,VALID,0.548437,
2012-11-02, 03:21:05,VALID,1007.98,VALID,0,VALID,104,VALID,0,VALID,23.2848,VALID,154,VALID,0.0265625,
2012-11-02, 03:22:05,VALID,1007.98,VALID,0,VALID,104,VALID,0,VALID,23.3026,VALID,154,VALID,0,
2012-11-02, 03:23:05,VALID,1007.98,VALID,0,VALID,104,VALID,0.112112,VALID,23.3026,VALID,154,VALID,0,
2012-11-02, 03:24:05,VALID,1007.97,VALID,0,VALID,104,VALID,0,VALID,23.3238,VALID,154,VALID,0,
2012-11-02, 03:25:05,VALID,1007.98,VALID,0,VALID,104,VALID,0.112112,VALID,23.3026,VALID,154,VALID,0.308203,
2012-11-02, 03:26:05,VALID,1007.96,VALID,0,VALID,104,VALID,0,VALID,23.2831,VALID,154,VALID,0.308984,
2012-11-02, 03:27:05,VALID,1007.97,VALID,0,VALID,104,VALID,0.112112,VALID,23.3026,VALID,155,VALID,0.585547,
2012-11-02, 03:28:05,VALID,1007.98,VALID,0,VALID,104,VALID,0,VALID,23.3026,VALID,170,VALID,0.644531,
2012-11-02, 03:29:05,VALID,1008,VALID,0,VALID,104,VALID,0.112112,VALID,23.3026,VALID,170,VALID,0.326562,
2012-11-02, 03:30:05,VALID,1008.01,VALID,0,VALID,104,VALID,0.112112,VALID,23.3026,VALID,170,VALID,0.280469,
2012-11-02, 03:31:05,VALID,1008.02,VALID,0,VALID,104,VALID,0.112112,VALID,23.3238,VALID,170,VALID,0.280859,
2012-11-02, 03:32:05,VALID,1008.05,VALID,0,VALID,104,VALID,0,VALID,23.3238,VALID,170,VALID,0.480859,
2012-11-02, 03:33:05,VALID,1008.08,VALID,0,VALID,104,VALID,0.112112,VALID,23.3026,VALID,169,VALID,0.481641,
2012-11-02, 03:34:05,VALID,1008.08,VALID,0,VALID,104,VALID,0.112112,VALID,23.3026,VALID,168,VALID,0.242188,
2012-11-02, 03:35:05,VALID,1008.12,VALID,0,VALID,104,VALID,0.112112,VALID,23.322,VALID,168,VALID,0.4625,
2012-11-02, 03:36:05,VALID,1008.1,VALID,0,VALID,104,VALID,0,VALID,23.3026,VALID,147,VALID,0.7375,
2012-11-02, 03:37:05,VALID,1008.13,VALID,0,VALID,104,VALID,0,VALID,23.3026,VALID,147,VALID,0.420703,
2012-11-02, 03:38:05,VALID,1008.16,VALID,0,VALID,104,VALID,0.112112,VALID,23.3026,VALID,147,VALID,0.331641,
2012-11-02, 03:39:05,VALID,1008.16,VALID,0,VALID,104,VALID,0.112112,VALID,23.3026,VALID,147,VALID,0.636328,
2012-11-02, 03:40:05,VALID,1008.16,VALID,0,VALID,104,VALID,0.112112,VALID,23.322,VALID,147,VALID,0.610156,
2012-11-02, 03:41:05,VALID,1008.19,VALID,0,VALID,104,VALID,0,VALID,23.3238,VALID,147,VALID,0.498047,
2012-11-02, 03:42:05,VALID,1008.18,VALID,0,VALID,104,VALID,0.112112,VALID,23.3026,VALID,147,VALID,0.544141,
2012-11-02, 03:43:05,VALID,1008.21,VALID,0,VALID,104,VALID,0.112112,VALID,23.322,VALID,160,VALID,0.690234,
2012-11-02, 03:44:05,VALID,1008.21,VALID,0,VALID,104,VALID,0,VALID,23.3433,VALID,164,VALID,0.442187,
2012-11-02, 03:45:05,VALID,1008.24,VALID,0,VALID,104,VALID,0.112112,VALID,23.3415,VALID,166,VALID,0.4375,
2012-11-02, 03:46:05,VALID,1008.26,VALID,0,VALID,104,VALID,0,VALID,23.3433,VALID,167,VALID,0.544922,
2012-11-02, 03:47:05,VALID,1008.28,VALID,0,VALID,104,VALID,0,VALID,23.322,VALID,168,VALID,0.48125,
2012-11-02, 03:48:05,VALID,1008.3,VALID,0,VALID,104,VALID,0,VALID,23.3415,VALID,168,VALID,0.285937,
2012-11-02, 03:49:05,VALID,1008.27,VALID,0,VALID,104,VALID,0,VALID,23.3628,VALID,168,VALID,0.580859,
2012-11-02, 03:50:05,VALID,1008.32,VALID,0,VALID,104,VALID,0,VALID,23.3433,VALID,168,VALID,0.371875,